User: anonymous   Login
Location: Theydon Bois
(51.6750°N, 0.1050°E)
Time: 07:56:07
(UTC+00:00)
Language:

Cosmos 2360 Rocket - Orbit

View from above orbital plane
View from above orbital plane
View from above satellite
View from above satellite

Ground track
Ground track

The orbit data is extracted from the following two-line orbital elements,

1 25407U 98045B   18050.58207894 -.00000125 +00000-0 -39302-4 0  9992
2 25407 071.0089 241.5352 0008593 204.6254 155.4460 14.15770178010934
Epoch (UTC): 19 February 2018 13:58:11
Eccentricity: 0.0008593
inclination: 71.0089°
perigee height: 833 km
apogee height: 846 km
right ascension of ascending node: 241.5352°
argument of perigee: 204.6254°
revolutions per day: 14.15770178
mean anomaly at epoch: 155.4460°
orbit number at epoch: 1093

The dashed part of the orbit path shows where the satellite is in the earth's shadow,  

DLR